Regional Weather Roundup
Issued by NWS Newport/Morehead, NC

Current Version | Previous Version | Text Only | Print | Product List | Glossary On
Versions: 1 2 3 4 5 6 7 8 9 10 11 12 13 14 15 16 17 18 19 20 21 22 23 24 25 26 27 28 29 30 31 32 33 34 35 36 37 38 39 40 41 42 43 44 45 46 47 48 49 50
000 ASUS42 KMHX 251313 RWRMHX WEATHER ROUNDUP FOR EASTERN NORTH CAROLINA NATIONAL WEATHER SERVICE NEWPORT/MOREHEAD CITY NC 900 AM EDT MON MAY 25 2015 NOTE: "FAIR" INDICATES FEW OR NO CLOUDS BELOW 12,000 FEET WITH NO SIGNIFICANT WEATHER AND/OR OBSTRUCTIONS TO VISIBILITY NCZ015>017-031-032-045>047-102-103-251400- NORTH COAST CITY SKY/WX TMP DP RH WIND PRES REMARKS EDENTON SUNNY 73 62 67 SW8 30.37R ELIZABETH CITY SUNNY 73 62 68 S7 30.37R KITTY HAWK SUNNY 73 60 62 CALM 30.37R MANTEO SUNNY 73 60 64 S6 30.38R $$ NCZ045>047-081-094-103-104-251400- CENTRAL COAST CITY SKY/WX TMP DP RH WIND PRES REMARKS FRISCO SUNNY 74 56 53 S7 30.38R SWANQUARTER N/A 77 N/A N/A S6 30.33S $$ NCZ095-097-098-100-101-251400- SOUTHERN COAST CITY SKY/WX TMP DP RH WIND PRES REMARKS BEAUFORT SUNNY 74 57 55 SE8 30.36S CEDAR ISLAND N/A 75 N/A N/A SE6G12 30.41S JACKSONVILLE SUNNY 74 61 63 SE7 30.36R PINEY ISLAND SUNNY N/A N/A N/A S6 30.37R WILMINGTON SUNNY 74 58 57 SE9 30.35R $$ NCZ011>013-027>030-043-044-078>080-089-090>093-098-251400- COASTAL PLAIN CITY SKY/WX TMP DP RH WIND PRES REMARKS AHOSKIE SUNNY 70 61 72 S3 30.37R CLINTON SUNNY 72 62 71 CALM 30.37R ELIZABETHTOWN SUNNY 70 61 73 CALM 30.36R GOLDSBORO SUNNY 72 61 68 S1 30.34S GREENVILLE SUNNY 73 61 64 S6 30.37S HAVELOCK SUNNY 74 60 61 SE8 30.38R KENANSVILLE SUNNY 71 60 67 E5 30.37S HAZE KINSTON SUNNY 73 61 64 S6 30.37S NEW BERN SUNNY 74 59 59 S6 30.38R RICHLANDS SUNNY 73 59 60 E5 30.37S ROCKY MOUNT SUNNY 72 61 68 S7 30.36S WASHINGTON SUNNY 72 59 63 SW5 30.38R WHITEVILLE SUNNY 71 62 74 NE3 30.35R $$ AMZ130-135-150-152-154-156-158-170-250-252-270-ANZ085-086-088-633-658-670-251400- MARINE OBSERVATIONS STATION/POSITION TIME TEMP WIND PRES WAVE SWELL AIR SEA DIR/SP/G HT/PER HT/PER (UTC) (F) (DEG/KT/KT) (MB) (FT/S) (FT/S) CHESAPEAKE LIGHT 1200 66 200/ 10/ 11 1028.6 64 E VA BEACH 1250 64 61 160/ 4/ 4 1028.5 1/ 8 2/ 8 DUCK 1200 66 62 160/ 6/ 7 1027.2 2 E DUCK 1211 63 N/A 1/ 9 OREGON INLET 1200 71 72 120/ 5/ 6 1028.3 13E OREGON INLT 1300 66 N/A 2/ 7 HATTERAS CG 1200 74 74 160/ 5/ 7 1027.8 DIAMOND BUOY 1250 73 77 140/ 6/ 8 1028.6 2/ 8 2/ 8 CAPE LOOKOUT 1300 73 130/ 7/ 8 1027.9 BEAUFORT LAB 1200 72 74 130/ 6/ 8 1027.2 27 SE WRIGHTSVLE 1200 71 76 160/ 8/ 10 N/A 5 SE WRIGHTSVLE 1208 74 76 150/ 8/ 12 1027.5 225 S CAPE HAT 1250 73 74 90/ 16/ 17 1027.5 4/ 5 2/12 41 SE CHARLESTON 1250 75 75 100/ 12/ 14 1025.9 5/ 8 3/ 8 $$

USA.gov is the U.S. government's official web portal to all federal, state and local government web resources and services.